GLOBALSTAR M055 [-]

Last updated on July 6, 2021, 3:36 p.m. UTC

1 25910U 99049D   21186.93722702 -.00000107  00000-0 -10706-3 0  9995
2 25910  52.0000 167.8821 0007077  13.1817 346.9218 12.29357200990902
UTC
Height (km)
Latitude
Longitude
Inclination
Orbital Period
UTC large
Height (km)
Speed (km/s)
/
Latitude / Longitude
Inclination (degrees)
Orbital Period (minutes)
Azimuth
Elevation
Range (km)
Doppler Factor
iOS Compass Heading
iOS Angle